Flag for Canada Weather past 2 weeks in Medicine Hat, Alberta, Canada

Now
36 °F

Partly sunny.


Feels Like: 28 °F
Forecast: 28 / 36 °F
Wind: 10 mph from Southwest

Location: Medicine Hat

Current Time: Dec 21, 2014 at 11:23:59 AM

Latest Report: Dec 21, 2014 at 11:00 AM


Visibility: 15 mi

Pressure: 29.31 "Hg

Humidity: 87%

Dew point: 32 °F

Location of Medicine HatLocation

Historic Weather in Medicine Hat — Graph

°F

Medicine Hat temperature yesterday

Maximum temperature yesterday: 37 °F (at 2:00 PM)
Minimum temperature yesterday: 25 °F (at 11:00 PM)
Average temperature yesterday: 32 °F

Past Weeks' High & Low Weather Summary

 TemperatureHumidityPressure
High59 °F (Dec 12, 2:00 PM)100% (Dec 6, 10:00 AM)30.43 "Hg (Dec 6, 10:00 AM)
Low3 °F (Dec 16, 4:00 AM)41% (Dec 11, 8:00 PM)29.26 "Hg (Dec 21, 8:00 AM)
Average30 °F84%29.96 "Hg
* Reported Dec 6 10:00 AM — Dec 21 10:00 AM, Medicine Hat, Weather by CustomWeather, © 2014

Note: Actual official high and low records may vary slightly from our data, if they occured in-between our weather recording intervals... More about our weather records

Advertising

Medicine Hat weather history for previous 24 hours

 ConditionsComfort  
Time TempWeatherWind HumidityBarometerVisibility
10:00 AM
Dec 21
37 °FPartly sunny.14 mph81%29.29 "Hg15 mi
9:00 AM37 °FPartly sunny.13 mph81%29.27 "Hg30 mi
8:00 AM37 °FPassing clouds.15 mph81%29.26 "Hg30 mi
7:00 AM37 °FOvercast.10 mph81%29.26 "Hg15 mi
6:00 AM39 °FOvercast.10 mph75%29.27 "Hg15 mi
5:00 AM36 °FOvercast.9 mph81%29.31 "Hg9 mi
4:00 AM34 °FPassing clouds.10 mph81%29.34 "Hg9 mi
3:00 AM28 °FPassing clouds.5 mph80%29.38 "Hg9 mi
2:00 AM28 °FPassing clouds.8 mph86%29.41 "Hg9 mi
1:00 AM25 °FPassing clouds.5 mph86%29.46 "Hg9 mi
12:00 AM25 °FClear.7 mph86%29.49 "Hg9 mi
11:00 PM
Dec 20
25 °FClear.6 mph86%29.54 "Hg9 mi
10:00 PM30 °FClear.13 mph75%29.56 "Hg9 mi
9:00 PM27 °FClear.3 mph80%29.60 "Hg9 mi
8:00 PM27 °FPassing clouds.9 mph86%29.62 "Hg15 mi
7:00 PM27 °FPassing clouds.9 mph86%29.67 "Hg15 mi
6:00 PM27 °FPassing clouds.5 mph93%29.70 "Hg15 mi
5:00 PM30 °FPassing clouds.9 mph86%29.72 "Hg30 mi
4:00 PM34 °FScattered clouds.9 mph81%29.74 "Hg30 mi
3:00 PM36 °FScattered clouds.9 mph75%29.75 "Hg30 mi
2:00 PM37 °FScattered clouds.12 mph70%29.75 "Hg30 mi
1:00 PM36 °FScattered clouds.13 mph70%29.78 "Hg30 mi
12:00 PM34 °FScattered clouds.12 mph75%29.81 "Hg30 mi
11:00 AM32 °FScattered clouds.12 mph75%29.83 "Hg30 mi
Weather by CustomWeather, © 2014

See weather overviewHow to use our weather pages